Weather History for Sidney, NE

Change the Weather History Date:

Friday, February 14, 2014

  Actual Average Record
Temperature  
Mean Temperature 34 °F 32 °F  
Max Temperature 41 °F 45 °F 70 °F (1999)
Min Temperature 27 °F 19 °F -10 °F (1978)
Degree Days  
Heating Degree Days 31 33  
Month to date heating degree days 728 483  
Since 1 July heating degree days 4469 4140  
Cooling Degree Days 0 0  
Month to date cooling degree days 0 0  
Year to date cooling degree days 0 0  
Moisture  
Dew Point 26 °F    
Average Humidity 65    
Maximum Humidity 89    
Minimum Humidity 40    
Precipitation  
Precipitation T in 0.01 in 0.15 in (1964)
Month to date precipitation 0.01 0.12  
Year to date precipitation 0.23 0.32  
Sea Level Pressure  
Sea Level Pressure 29.95 in    
Wind  
Wind Speed 14 mph (WNW)    
Max Wind Speed 32 mph    
Max Gust Speed 46 mph    
Visibility 7 miles    
Events Snow    
T = Trace of Precipitation, MM = Missing Value Source: NWS Daily Summary

Daily Weather History Graph

Daily Weather History Graph

Search for Another Location

Airport:

Trip Planner

Search our weather history database for the weather conditions in past years. The results will help you decide how hot, cold, wet, or windy it might be!

Date:

Astronomy

Feb. 14, 2014 Rise Set
Actual Time 6:47 AM MST 5:25 PM MST
Civil Twilight 6:19 AM MST 5:53 PM MST
Nautical Twilight 5:47 AM MST 6:25 PM MST
Astronomical Twilight 5:15 AM MST 6:57 PM MST
Moon 5:31 PM MST (2/14) 6:15 AM MST (2/14)
Length of Visible Light 11h 34m
Length of Day
10h 37m
Full, 100% of the Moon is Illuminated
Feb 14
Full
Feb 14
Full
Feb 22
Last Quarter
Mar 1
New
Mar 8
First Quarter

Hourly Weather History & Observations

Time (MST) Temp. Windchill Dew Point Humidity Pressure Visibility Wind Dir Wind Speed Gust Speed Precip Events Conditions
12:50 AM 33.8 °F 23.2 °F 30.2 °F 87% 29.86 in 1.8 mi NW 17.3 mph - 0.00 in Snow Light Snow
12:53 AM 34.0 °F - 30.0 °F 85% 29.88 in 1.5 mi North - - 0.00 in Snow Light Snow
1:01 AM 33.1 °F 21.9 °F 30.0 °F 89% 29.87 in 3.0 mi NW 18.4 mph - 0.00 in Snow Light Snow
1:44 AM 33.1 °F 20.9 °F 30.0 °F 89% 29.91 in 1.8 mi NW 21.9 mph - 0.00 in Snow Light Snow
1:50 AM 33.8 °F 22.5 °F 30.2 °F 87% 29.91 in 1.2 mi NNW 19.6 mph 27.6 mph 0.00 in Snow Light Snow
1:53 AM 33.1 °F 20.9 °F 30.0 °F 89% 29.93 in 1.2 mi NNW 21.9 mph 28.8 mph 0.00 in Snow Light Snow
1:58 AM 33.1 °F 21.2 °F 30.0 °F 89% 29.91 in 1.0 mi NNW 20.7 mph 28.8 mph 0.00 in Snow Light Snow
2:05 AM 33.1 °F 22.2 °F 30.0 °F 89% 29.90 in 1.2 mi NNW 17.3 mph - 0.00 in Snow Light Snow
2:12 AM 33.1 °F 22.6 °F 30.0 °F 89% 29.91 in 2.0 mi NW 16.1 mph - 0.00 in Snow Light Snow
2:20 AM 33.1 °F 22.6 °F 30.0 °F 89% 29.90 in 3.0 mi NW 16.1 mph - 0.00 in Snow Light Snow
2:53 AM 33.1 °F 23.9 °F 30.0 °F 89% 29.92 in 10.0 mi WNW 12.7 mph - 0.00 in   Overcast
3:53 AM 35.1 °F 21.4 °F 26.1 °F 70% 29.94 in 10.0 mi NW 32.2 mph 40.3 mph N/A   Overcast
4:53 AM 34.0 °F 22.4 °F 23.0 °F 64% 29.96 in 10.0 mi NW 20.7 mph 29.9 mph N/A   Overcast
5:53 AM 30.9 °F 19.8 °F 21.0 °F 67% 29.99 in 10.0 mi NW 16.1 mph - N/A   Clear
6:53 AM 28.0 °F 17.5 °F 21.0 °F 75% 30.03 in 10.0 mi WNW 12.7 mph - N/A   Clear
7:53 AM 30.0 °F 19.1 °F 21.9 °F 72% 30.06 in 10.0 mi NW 15.0 mph - N/A   Clear
8:53 AM 30.9 °F 22.2 °F 25.0 °F 79% 30.08 in 10.0 mi WNW 10.4 mph - N/A   Clear
9:53 AM 35.1 °F 25.9 °F 25.0 °F 67% 30.08 in 10.0 mi NW 13.8 mph - N/A   Clear
10:53 AM 37.0 °F 28.9 °F 25.0 °F 62% 30.09 in 10.0 mi NW 12.7 mph - N/A   Clear
11:53 AM 39.9 °F 32.1 °F 21.9 °F 49% 30.07 in 10.0 mi NW 13.8 mph - N/A   Clear
12:53 PM 39.9 °F 31.1 °F 21.0 °F 47% 30.05 in 10.0 mi NW 17.3 mph - N/A   Clear
1:53 PM 39.9 °F 32.5 °F 19.0 °F 43% 30.01 in 10.0 mi North 12.7 mph - N/A   Clear
2:53 PM 41.0 °F 34.7 °F 19.9 °F 43% 29.98 in 10.0 mi NNW 10.4 mph - N/A   Mostly Cloudy
3:53 PM 39.9 °F - 18.0 °F 41% 29.97 in 10.0 mi Calm Calm - N/A   Overcast
4:53 PM 37.0 °F 30.4 °F 24.1 °F 59% 29.96 in 10.0 mi SSW 9.2 mph - N/A   Overcast
5:53 PM 36.0 °F 28.0 °F 24.1 °F 62% 29.96 in 10.0 mi SSW 11.5 mph - N/A   Overcast
6:53 PM 35.1 °F 29.3 °F 24.1 °F 64% 29.98 in 10.0 mi South 6.9 mph - N/A   Overcast
7:53 PM 35.1 °F 26.9 °F 25.0 °F 67% 29.94 in 10.0 mi South 11.5 mph - N/A   Overcast
8:53 PM 35.1 °F 26.4 °F 26.1 °F 70% 29.92 in 10.0 mi SSW 12.7 mph - N/A   Overcast
9:53 PM 36.0 °F 26.0 °F 26.1 °F 67% 29.84 in 10.0 mi SSW 17.3 mph - N/A   Clear
10:53 PM 37.0 °F 26.7 °F 28.0 °F 70% 29.82 in 10.0 mi SW 19.6 mph - N/A   Overcast
11:53 PM 36.0 °F 26.7 °F 30.0 °F 79% 29.78 in 10.0 mi SSW 15.0 mph - 0.00 in   Overcast